This is the latest recevied weather packets stored in our database for station/object 9D9-WX. If no packets are shown the sender has not sent any weather packets the latest 10 day(s).
| Time | Temp. | Humidity | Pressure | Rain* | Wind** | Luminosity | Snow |
|---|---|---|---|---|---|---|---|
| 1777324512 | 16.67° C | 73% | 980.7 hPa | 1.27 mm | - | - | - |
| 1777323628 | 17.22° C | 73% | 980.7 hPa | 1.27 mm | - | - | - |
| 1777322711 | 17.78° C | 58% | 980.8 hPa | 0.25 mm | - | - | - |
| 1777321821 | 17.78° C | 64% | 982.1 hPa | 0.25 mm | - | - | - |
| 1777320911 | 20° C | 64% | 982 hPa | 0 mm | - | - | - |
| 1777320025 | 20° C | 53% | 981.3 hPa | 0 mm | - | - | - |
| 1777319111 | 20.56° C | 45% | 980.6 hPa | 0 mm | - | - | - |
| 1777318225 | 20.56° C | 45% | 980.6 hPa | 0 mm | - | - | - |
| 1777317311 | 21.67° C | 45% | 980.6 hPa | 0 mm | - | - | - |
| 1777316430 | 21.67° C | 45% | 980.6 hPa | 0 mm | - | - | - |
| 1777315511 | 22.22° C | 46% | 984.3 hPa | 0 mm | - | - | - |
| 1777314620 | 21.67° C | 46% | 982.6 hPa | 0 mm | - | - | - |
| 1777313710 | 22.22° C | 46% | 982.7 hPa | 0 mm | - | - | - |
| 1777312830 | 21.67° C | 46% | 982.7 hPa | 0 mm | - | - | - |
| 1777311910 | 21.67° C | 51% | 985 hPa | 0 mm | - | - | - |
| 1777311026 | 21.11° C | 52% | 984.5 hPa | 0 mm | - | - | - |
| 1777310110 | 20.56° C | 52% | 984.5 hPa | 0 mm | - | - | - |
| 1777309228 | 20.56° C | 52% | 984.5 hPa | 0 mm | - | - | - |
| 1777308308 | 20° C | 54% | 985.4 hPa | 0 mm | - | - | - |
| 1777307426 | 20° C | 54% | 985.2 hPa | 0 mm | - | - | - |
| 1777306510 | 18.89° C | 54% | 985.2 hPa | 0 mm | - | - | - |
| 1777305632 | 18.33° C | 54% | 985.2 hPa | 0 mm | - | - | - |
| 1777304709 | 17.78° C | 60% | 985.8 hPa | 0 mm | - | - | - |
| 1777303821 | 17.78° C | 59% | 985.3 hPa | 0 mm | - | - | - |
| 1777302909 | 16.67° C | 59% | 985.3 hPa | 0 mm | - | - | - |
* Rain latest hour (hover to see other rain measurements)
** Current wind speed in m/s (hover to see current wind gust speed)